BEL75Y LGKO-EBBR

Flight info

Callsign BEL75Y
Flight time N/A
Altitude 30000
Route LARKI UL609 MES UL618 DESUG/N0451F320 UL618 LMO DCT EVIVI L863 OKANA DCT MITNO DCT EMKES DCT VRANA/N0452F360 DCT ELTIB DCT RASTU DCT SABAD DCT EKSUM DCT UPETA DCT VEKEN DCT INSEL/N0452F380 DCT BIRGI DCT KPT L608 MISGI Z104 OLGIL/N0436F300 Z104 GESLO N852 LNO
Aircraft A320/M-DE3FGHIJ1LORVWY/H

Departure

Time 2026-04-29 11:02
Airport Kos International Airport "Ippokratis" (LGKO)

Arrival

Time N/A
Airport Brussels Airport (EBBR)
Time Latitude Longitude Altitude Speed Heading
2026-04-29 10:18 36.79938 27.09095 411 ft 0 kts 58°
2026-04-29 10:52 36.79926 27.09072 412 ft 4 kts 58°
2026-04-29 10:52 36.79912 27.09044 412 ft 4 kts 58°
2026-04-29 10:52 36.79900 27.09021 419 ft 4 kts 63°
2026-04-29 10:53 36.79894 27.08993 415 ft 4 kts 118°
2026-04-29 10:53 36.79911 27.08980 419 ft 4 kts 178°
2026-04-29 10:53 36.79925 27.08980 419 ft 0 kts 178°
2026-04-29 10:56 36.79912 27.08980 418 ft 3 kts 178°
2026-04-29 10:56 36.79868 27.08982 413 ft 7 kts 178°
2026-04-29 10:56 36.79822 27.08984 411 ft 7 kts 178°
2026-04-29 10:57 36.79755 27.08986 411 ft 12 kts 178°
2026-04-29 10:57 36.79660 27.08990 420 ft 14 kts 178°
2026-04-29 10:57 36.79576 27.09023 419 ft 13 kts 149°
2026-04-29 10:57 36.79486 27.09093 416 ft 17 kts 148°
2026-04-29 10:58 36.79373 27.09181 414 ft 21 kts 148°
2026-04-29 10:58 36.79237 27.09286 407 ft 25 kts 148°
2026-04-29 10:58 36.79081 27.09408 400 ft 26 kts 148°
2026-04-29 10:58 36.78927 27.09528 397 ft 26 kts 148°
2026-04-29 10:59 36.78783 27.09640 393 ft 25 kts 148°
2026-04-29 10:59 36.78645 27.09747 392 ft 17 kts 148°
2026-04-29 10:59 36.78559 27.09774 388 ft 8 kts 145°
2026-04-29 10:59 36.78569 27.09807 388 ft 2 kts 356°
2026-04-29 11:00 36.78579 27.09799 389 ft 1 kts 327°
2026-04-29 11:00 36.78584 27.09795 389 ft 6 kts 327°
2026-04-29 11:00 36.78789 27.09635 394 ft 71 kts 328°
2026-04-29 11:00 36.79385 27.09171 408 ft 129 kts 328°
2026-04-29 11:01 36.79999 27.08700 452 ft 158 kts 329°
2026-04-29 11:02 36.80604 27.08224 804 ft 158 kts 328°
2026-04-29 11:02 36.81377 27.07228 1436 ft 166 kts 301°
2026-04-29 11:02 36.81597 27.05748 1776 ft 187 kts 273°
2026-04-29 11:02 36.81895 27.04118 2035 ft 205 kts 298°
2026-04-29 11:03 36.82614 27.02495 2361 ft 224 kts 302°
2026-04-29 11:03 36.83453 27.00732 2693 ft 248 kts 303°
2026-04-29 11:03 36.84379 26.98850 3324 ft 258 kts 303°
2026-04-29 11:03 36.85340 26.96930 4142 ft 262 kts 303°
2026-04-29 11:04 36.86321 26.94988 4952 ft 266 kts 303°
2026-04-29 11:04 36.87457 26.93160 5730 ft 269 kts 321°
2026-04-29 11:04 36.89089 26.92054 6500 ft 270 kts 347°
2026-04-29 11:04 36.90956 26.91692 7295 ft 273 kts 354°
2026-04-29 11:05 36.92854 26.91412 8072 ft 276 kts 353°
2026-04-29 11:05 36.94752 26.91120 8802 ft 280 kts 353°
2026-04-29 11:05 36.96698 26.90816 9549 ft 284 kts 353°
2026-04-29 11:05 36.98669 26.90502 10260 ft 288 kts 353°
2026-04-29 11:06 37.00733 26.90167 10496 ft 311 kts 352°
2026-04-29 11:06 37.02954 26.89805 10682 ft 333 kts 352°
2026-04-29 11:06 37.05312 26.89424 11088 ft 347 kts 352°
2026-04-29 11:06 37.07719 26.89032 11741 ft 350 kts 352°
2026-04-29 11:07 37.10148 26.88639 12394 ft 355 kts 352°
2026-04-29 11:07 37.12610 26.88240 13077 ft 358 kts 352°
2026-04-29 11:07 37.15096 26.87842 13748 ft 361 kts 352°
2026-04-29 11:07 37.17605 26.87438 14372 ft 365 kts 352°
2026-04-29 11:08 37.20130 26.87030 14994 ft 368 kts 352°
2026-04-29 11:08 37.22681 26.86615 15580 ft 371 kts 352°
2026-04-29 11:08 37.25257 26.86203 16160 ft 374 kts 352°
2026-04-29 11:08 37.27850 26.85784 16746 ft 377 kts 351°
2026-04-29 11:09 37.30459 26.85354 17319 ft 380 kts 351°
2026-04-29 11:09 37.33058 26.84935 17863 ft 383 kts 351°
2026-04-29 11:09 37.35715 26.84509 18421 ft 386 kts 351°
2026-04-29 11:09 37.38373 26.83966 18889 ft 388 kts 343°
2026-04-29 11:10 37.40854 26.82655 19020 ft 386 kts 327°
2026-04-29 11:10 37.42966 26.80585 19044 ft 384 kts 318°
2026-04-29 11:10 37.44983 26.78379 19033 ft 384 kts 318°
2026-04-29 11:10 37.47007 26.76179 19036 ft 384 kts 319°
2026-04-29 11:11 37.49031 26.73988 19040 ft 384 kts 319°
2026-04-29 11:11 37.51060 26.71800 19036 ft 384 kts 319°
2026-04-29 11:11 37.53088 26.69605 19036 ft 384 kts 319°
2026-04-29 11:11 37.55115 26.67420 19036 ft 384 kts 319°
2026-04-29 11:12 37.57140 26.65224 19040 ft 384 kts 319°
2026-04-29 11:12 37.59161 26.63028 19039 ft 384 kts 319°
2026-04-29 11:12 37.61186 26.60830 19036 ft 384 kts 319°
2026-04-29 11:12 37.63207 26.58631 19037 ft 384 kts 319°
2026-04-29 11:13 37.65228 26.56432 19032 ft 384 kts 319°
2026-04-29 11:13 37.67254 26.54226 19036 ft 384 kts 319°
2026-04-29 11:13 37.69279 26.52016 19040 ft 384 kts 319°
2026-04-29 11:13 37.71302 26.49817 19059 ft 385 kts 319°
2026-04-29 11:14 37.73326 26.47623 19565 ft 387 kts 319°
2026-04-29 11:14 37.75373 26.45401 20121 ft 389 kts 319°
2026-04-29 11:14 37.77433 26.43162 20641 ft 392 kts 319°
2026-04-29 11:14 37.79508 26.40906 21133 ft 395 kts 319°
2026-04-29 11:15 37.81597 26.38633 21594 ft 398 kts 319°
2026-04-29 11:15 37.83697 26.36335 22053 ft 400 kts 319°
2026-04-29 11:15 37.85808 26.34027 22484 ft 403 kts 319°
2026-04-29 11:15 37.87936 26.31700 22901 ft 405 kts 319°
2026-04-29 11:16 37.90072 26.29357 23326 ft 408 kts 318°
2026-04-29 11:16 37.92220 26.26989 23736 ft 410 kts 318°
2026-04-29 11:16 37.94385 26.24615 24117 ft 413 kts 318°
2026-04-29 11:16 37.96560 26.22225 24503 ft 415 kts 320°
2026-04-29 11:17 37.98940 26.20133 24870 ft 418 kts 328°
2026-04-29 11:17 38.01451 26.18238 25231 ft 421 kts 328°
2026-04-29 11:17 38.03978 26.16322 25601 ft 423 kts 328°
2026-04-29 11:17 38.06476 26.14424 25951 ft 425 kts 328°
2026-04-29 11:18 38.09021 26.12495 26289 ft 427 kts 328°
2026-04-29 11:18 38.11574 26.10550 26613 ft 429 kts 328°
2026-04-29 11:18 38.14139 26.08591 26926 ft 431 kts 328°
2026-04-29 11:18 38.16718 26.06628 27242 ft 433 kts 328°
2026-04-29 11:19 38.19300 26.04648 27530 ft 434 kts 328°
2026-04-29 11:19 38.21894 26.02667 27831 ft 436 kts 328°
2026-04-29 11:19 38.24505 26.00681 28114 ft 438 kts 328°
2026-04-29 11:19 38.27116 25.98685 28374 ft 439 kts 327°
2026-04-29 11:20 38.29738 25.96667 28627 ft 441 kts 327°
2026-04-29 11:20 38.32368 25.94645 28882 ft 443 kts 327°
2026-04-29 11:20 38.35011 25.92612 29138 ft 444 kts 327°
2026-04-29 11:20 38.37656 25.90575 29378 ft 445 kts 327°
2026-04-29 11:21 38.40317 25.88532 29617 ft 446 kts 327°
2026-04-29 11:21 38.42987 25.86485 29832 ft 447 kts 327°
2026-04-29 11:21 38.45649 25.84441 30132 ft 446 kts 327°
2026-04-29 11:21 38.48304 25.82393 30427 ft 445 kts 327°
2026-04-29 11:22 38.50949 25.80349 30719 ft 444 kts 327°
2026-04-29 11:22 38.53596 25.78317 31019 ft 443 kts 327°
2026-04-29 11:22 38.56228 25.76277 31318 ft 441 kts 327°
2026-04-29 11:22 38.58820 25.74266 31611 ft 440 kts 327°
2026-04-29 11:23 38.61430 25.72242 31907 ft 438 kts 327°
2026-04-29 11:23 38.64027 25.70218 32193 ft 437 kts 327°
2026-04-29 11:23 38.66625 25.68205 32492 ft 435 kts 327°
2026-04-29 11:23 38.69214 25.66210 32765 ft 434 kts 327°
2026-04-29 11:24 38.71795 25.64209 33029 ft 433 kts 327°
2026-04-29 11:24 38.74361 25.62204 33299 ft 432 kts 326°
2026-04-29 11:24 38.76925 25.60205 33570 ft 430 kts 326°
2026-04-29 11:24 38.79476 25.58213 33837 ft 429 kts 326°
2026-04-29 11:25 38.82024 25.56226 34053 ft 428 kts 326°
2026-04-29 11:25 38.87090 25.52286 34100 ft 424 kts 326°
2026-04-29 11:26 38.94639 25.46378 34100 ft 423 kts 326°
2026-04-29 11:26 38.99666 25.42440 34109 ft 423 kts 326°
2026-04-29 11:27 39.04681 25.38502 34109 ft 422 kts 326°
2026-04-29 11:27 39.09690 25.34555 34109 ft 422 kts 326°
2026-04-29 11:28 39.14701 25.30611 34113 ft 422 kts 326°
2026-04-29 11:28 39.19711 25.26663 34119 ft 422 kts 326°
2026-04-29 11:29 39.24715 25.22699 34126 ft 422 kts 326°
2026-04-29 11:29 39.29723 25.18744 34132 ft 422 kts 326°
2026-04-29 11:30 39.34684 25.14806 34132 ft 421 kts 326°
2026-04-29 11:30 39.39677 25.10845 34133 ft 421 kts 326°
2026-04-29 11:31 39.44666 25.06867 34133 ft 421 kts 326°
2026-04-29 11:31 39.49653 25.02877 34131 ft 421 kts 326°
2026-04-29 11:32 39.54640 24.98902 34129 ft 421 kts 326°
2026-04-29 11:32 39.59625 24.94918 34134 ft 421 kts 326°
2026-04-29 11:33 39.64607 24.90916 34137 ft 421 kts 326°
2026-04-29 11:33 39.69592 24.86921 34139 ft 421 kts 326°
2026-04-29 11:34 39.74575 24.82921 34144 ft 421 kts 326°
2026-04-29 11:34 39.79520 24.78919 34145 ft 421 kts 326°
2026-04-29 11:35 39.84500 24.74910 34145 ft 421 kts 326°
2026-04-29 11:35 39.89474 24.70887 34149 ft 421 kts 326°
2026-04-29 11:36 39.94443 24.66870 34145 ft 420 kts 326°
2026-04-29 11:36 39.99411 24.62843 34146 ft 420 kts 326°
2026-04-29 11:37 40.04371 24.58816 34151 ft 419 kts 325°
2026-04-29 11:37 40.09308 24.54789 34154 ft 418 kts 325°
2026-04-29 11:38 40.14243 24.50766 34151 ft 418 kts 325°
2026-04-29 11:38 40.19181 24.46744 34143 ft 418 kts 325°
2026-04-29 11:39 40.24103 24.42706 34140 ft 418 kts 325°
2026-04-29 11:39 40.29037 24.38662 34136 ft 418 kts 325°
2026-04-29 11:40 40.34102 24.34897 34134 ft 419 kts 329°
2026-04-29 11:40 40.39212 24.31297 34133 ft 419 kts 329°
2026-04-29 11:41 40.44335 24.27649 34135 ft 418 kts 328°
2026-04-29 11:41 40.49458 24.24010 34135 ft 418 kts 329°
2026-04-29 11:42 40.54572 24.20365 34134 ft 418 kts 328°
2026-04-29 11:42 40.59684 24.16708 34137 ft 418 kts 328°
2026-04-29 11:43 40.64792 24.13053 34138 ft 418 kts 328°
2026-04-29 11:43 40.69867 24.09428 34139 ft 418 kts 328°
2026-04-29 11:44 40.74964 24.05767 34138 ft 417 kts 328°
2026-04-29 11:44 40.80055 24.02097 34140 ft 416 kts 328°
2026-04-29 11:45 40.85139 23.98431 34140 ft 416 kts 328°
2026-04-29 11:45 40.90215 23.94765 34138 ft 416 kts 328°
2026-04-29 11:46 40.95296 23.91096 34140 ft 416 kts 328°
2026-04-29 11:46 41.00372 23.87423 34140 ft 415 kts 328°
2026-04-29 11:47 41.05436 23.83745 34141 ft 415 kts 328°
2026-04-29 11:47 41.10491 23.80065 34139 ft 414 kts 328°
2026-04-29 11:48 41.14692 23.77011 34139 ft 414 kts 328°
2026-04-29 11:48 41.19731 23.73336 34136 ft 413 kts 327°
2026-04-29 11:49 41.24775 23.69659 34133 ft 413 kts 327°
2026-04-29 11:49 41.29804 23.65971 34133 ft 412 kts 327°
2026-04-29 11:50 41.34822 23.62279 34133 ft 412 kts 327°
2026-04-29 11:50 41.39846 23.58599 34133 ft 412 kts 327°
2026-04-29 11:51 41.44858 23.54921 34131 ft 411 kts 327°
2026-04-29 11:51 41.49866 23.51226 34128 ft 411 kts 327°
2026-04-29 11:52 41.54832 23.47555 34124 ft 410 kts 327°
2026-04-29 11:52 41.59827 23.43866 34125 ft 410 kts 327°
2026-04-29 11:53 41.64816 23.40166 34127 ft 410 kts 327°
2026-04-29 11:53 41.69798 23.36464 34127 ft 410 kts 327°
2026-04-29 11:54 41.74775 23.32748 34120 ft 410 kts 327°
2026-04-29 11:54 41.79766 23.29039 34112 ft 410 kts 327°
2026-04-29 11:55 41.84748 23.25322 34105 ft 410 kts 327°
2026-04-29 11:55 41.89726 23.21589 34102 ft 410 kts 327°
2026-04-29 11:56 41.94708 23.17861 34100 ft 410 kts 327°
2026-04-29 11:56 41.99688 23.14125 34097 ft 410 kts 327°
2026-04-29 11:57 42.04627 23.10413 34102 ft 409 kts 326°
2026-04-29 11:57 42.09582 23.06675 34107 ft 408 kts 326°
2026-04-29 11:58 42.14535 23.02948 34105 ft 407 kts 326°
2026-04-29 11:58 42.19467 22.99214 34100 ft 406 kts 326°
2026-04-29 11:59 42.24395 22.95490 34097 ft 406 kts 326°
2026-04-29 11:59 42.29299 22.91756 34086 ft 405 kts 326°
2026-04-29 12:00 42.34207 22.88026 34085 ft 405 kts 326°
2026-04-29 12:00 42.39113 22.84299 34087 ft 404 kts 326°
2026-04-29 12:01 42.44019 22.80558 34090 ft 405 kts 326°
2026-04-29 12:01 42.48926 22.76808 34091 ft 405 kts 326°
2026-04-29 12:02 42.53803 22.73072 34096 ft 405 kts 326°
2026-04-29 12:02 42.58710 22.69310 34098 ft 405 kts 326°
2026-04-29 12:03 42.63612 22.65536 34097 ft 404 kts 326°
2026-04-29 12:03 42.68509 22.61771 34099 ft 404 kts 326°
2026-04-29 12:04 42.73403 22.58001 34096 ft 404 kts 326°
2026-04-29 12:04 42.78289 22.54217 34098 ft 403 kts 325°
2026-04-29 12:05 42.82883 22.49947 34093 ft 396 kts 313°
2026-04-29 12:05 42.86181 22.44056 34098 ft 391 kts 295°
2026-04-29 12:06 42.88308 22.37252 34100 ft 390 kts 291°
2026-04-29 12:06 42.90362 22.30417 34100 ft 389 kts 291°
2026-04-29 12:07 42.92428 22.23585 34103 ft 390 kts 291°
2026-04-29 12:07 42.94479 22.16747 34103 ft 389 kts 291°
2026-04-29 12:08 42.96522 22.09899 34104 ft 389 kts 291°
2026-04-29 12:08 42.98568 22.03057 34107 ft 389 kts 291°
2026-04-29 12:09 43.00595 21.96266 34107 ft 389 kts 292°
2026-04-29 12:09 43.02630 21.89412 34103 ft 389 kts 292°
2026-04-29 12:10 43.04664 21.82547 34106 ft 390 kts 292°
2026-04-29 12:10 43.06700 21.75675 34109 ft 390 kts 291°
2026-04-29 12:11 43.08722 21.68786 34109 ft 390 kts 291°
2026-04-29 12:11 43.10751 21.61905 34114 ft 389 kts 291°
2026-04-29 12:12 43.12765 21.55033 34113 ft 389 kts 291°
2026-04-29 12:12 43.14774 21.48164 34111 ft 389 kts 291°
2026-04-29 12:13 43.16784 21.41292 34110 ft 389 kts 291°
2026-04-29 12:13 43.18781 21.34402 34110 ft 388 kts 291°
2026-04-29 12:14 43.20778 21.27521 34110 ft 389 kts 291°
2026-04-29 12:14 43.22769 21.20621 34110 ft 389 kts 291°
2026-04-29 12:15 43.24754 21.13772 34109 ft 389 kts 291°
2026-04-29 12:15 43.26739 21.06863 34113 ft 389 kts 291°
2026-04-29 12:16 43.28721 20.99949 34118 ft 389 kts 291°
2026-04-29 12:16 43.30703 20.93026 34120 ft 389 kts 291°
2026-04-29 12:17 43.32674 20.86108 34123 ft 389 kts 291°
2026-04-29 12:17 43.34646 20.79194 34126 ft 389 kts 291°
2026-04-29 12:18 43.36598 20.72319 34140 ft 388 kts 291°
2026-04-29 12:18 43.38558 20.65413 34153 ft 387 kts 291°
2026-04-29 12:19 43.40507 20.58517 34156 ft 386 kts 290°
2026-04-29 12:19 43.42446 20.51623 34157 ft 387 kts 290°
2026-04-29 12:20 43.44378 20.44718 34163 ft 386 kts 290°
2026-04-29 12:20 43.46302 20.37822 34169 ft 385 kts 290°
2026-04-29 12:21 43.48224 20.30946 34167 ft 384 kts 290°
2026-04-29 12:21 43.50132 20.24074 34167 ft 384 kts 290°
2026-04-29 12:22 43.52032 20.17208 34161 ft 383 kts 290°
2026-04-29 12:22 43.53939 20.10348 34163 ft 383 kts 290°
2026-04-29 12:23 43.55832 20.03473 34162 ft 383 kts 290°
2026-04-29 12:23 43.57712 19.96644 34165 ft 383 kts 290°
2026-04-29 12:24 43.59598 19.89773 34162 ft 383 kts 290°
2026-04-29 12:24 43.61476 19.82906 34162 ft 383 kts 290°
2026-04-29 12:25 43.63355 19.76025 34162 ft 383 kts 290°
2026-04-29 12:26 43.66163 19.65704 34158 ft 382 kts 290°
2026-04-29 12:26 43.68033 19.58811 34155 ft 384 kts 290°
2026-04-29 12:27 43.69899 19.51906 34153 ft 384 kts 290°
2026-04-29 12:27 43.71756 19.44992 34151 ft 384 kts 290°
2026-04-29 12:28 43.73602 19.38112 34145 ft 384 kts 290°
2026-04-29 12:28 43.75459 19.31185 34150 ft 384 kts 290°
2026-04-29 12:29 43.77335 19.24253 34143 ft 384 kts 293°
2026-04-29 12:29 43.79674 19.17578 34139 ft 385 kts 295°
2026-04-29 12:30 43.82048 19.10916 34138 ft 386 kts 295°
2026-04-29 12:30 43.84417 19.04221 34135 ft 387 kts 295°
2026-04-29 12:31 43.86787 18.97526 34131 ft 387 kts 295°
2026-04-29 12:31 43.89147 18.90819 34129 ft 387 kts 295°
2026-04-29 12:32 43.91508 18.84118 34127 ft 387 kts 295°
2026-04-29 12:32 43.93849 18.77436 34122 ft 387 kts 294°
2026-04-29 12:33 43.96203 18.70712 34119 ft 388 kts 294°
2026-04-29 12:33 43.98552 18.63975 34119 ft 388 kts 294°
2026-04-29 12:34 44.00901 18.57234 34118 ft 388 kts 294°
2026-04-29 12:34 44.03239 18.50489 34127 ft 386 kts 294°
2026-04-29 12:35 44.05578 18.43768 34126 ft 386 kts 294°
2026-04-29 12:35 44.07899 18.37052 34120 ft 385 kts 294°
2026-04-29 12:36 44.09816 18.31458 34121 ft 385 kts 294°
2026-04-29 12:36 44.12137 18.24735 34119 ft 386 kts 294°
2026-04-29 12:37 44.14445 18.17996 34113 ft 385 kts 294°
2026-04-29 12:37 44.16735 18.11290 34114 ft 386 kts 294°
2026-04-29 12:38 44.19061 18.04500 34116 ft 386 kts 294°
2026-04-29 12:38 44.21343 17.97777 34120 ft 386 kts 294°
2026-04-29 12:39 44.23640 17.91018 34120 ft 386 kts 294°
2026-04-29 12:39 44.25933 17.84251 34115 ft 385 kts 294°
2026-04-29 12:40 44.28227 17.77478 34122 ft 386 kts 294°
2026-04-29 12:40 44.30513 17.70694 34133 ft 386 kts 294°
2026-04-29 12:41 44.32781 17.63953 34143 ft 386 kts 294°
2026-04-29 12:41 44.35050 17.57162 34153 ft 386 kts 294°
2026-04-29 12:42 44.37327 17.50364 34161 ft 386 kts 293°
2026-04-29 12:42 44.39601 17.43565 34165 ft 386 kts 293°
2026-04-29 12:43 44.41861 17.36768 34167 ft 385 kts 293°
2026-04-29 12:43 44.44127 17.29958 34174 ft 386 kts 293°
2026-04-29 12:44 44.46378 17.23143 34179 ft 385 kts 293°
2026-04-29 12:44 44.48629 17.16332 34181 ft 386 kts 293°
2026-04-29 12:45 44.50882 17.09509 34180 ft 386 kts 293°
2026-04-29 12:45 44.53108 17.02716 34183 ft 386 kts 293°
2026-04-29 12:46 44.55354 16.95877 34186 ft 386 kts 293°
2026-04-29 12:46 44.57594 16.89024 34183 ft 386 kts 293°
2026-04-29 12:47 44.59836 16.82164 34185 ft 387 kts 293°
2026-04-29 12:47 44.62068 16.75281 34182 ft 387 kts 293°
2026-04-29 12:48 44.64305 16.68397 34181 ft 387 kts 293°
2026-04-29 12:48 44.66519 16.61554 34182 ft 388 kts 293°
2026-04-29 12:49 44.68750 16.54653 34184 ft 388 kts 293°
2026-04-29 12:49 44.70968 16.47729 34182 ft 388 kts 293°
2026-04-29 12:50 44.73199 16.40801 34181 ft 389 kts 293°
2026-04-29 12:50 44.75412 16.33850 34183 ft 390 kts 293°
2026-04-29 12:51 44.77637 16.26905 34181 ft 389 kts 293°
2026-04-29 12:51 44.79849 16.19951 34178 ft 389 kts 293°
2026-04-29 12:52 44.82051 16.13036 34175 ft 389 kts 293°
2026-04-29 12:52 44.84261 16.06075 34172 ft 389 kts 292°
2026-04-29 12:53 44.86453 15.99097 34169 ft 389 kts 292°
2026-04-29 12:53 44.88654 15.92123 34161 ft 389 kts 292°
2026-04-29 12:54 44.90851 15.85120 34159 ft 390 kts 292°
2026-04-29 12:54 44.93042 15.78110 34159 ft 390 kts 292°
2026-04-29 12:55 44.95877 15.71582 34160 ft 394 kts 307°
2026-04-29 12:55 44.99457 15.65694 34167 ft 395 kts 307°
2026-04-29 12:56 45.03037 15.59805 34174 ft 395 kts 307°
2026-04-29 12:56 45.06571 15.53935 34184 ft 394 kts 307°
2026-04-29 12:57 45.10122 15.48030 34188 ft 394 kts 307°
2026-04-29 12:57 45.13678 15.42121 34180 ft 394 kts 307°
2026-04-29 12:58 45.17227 15.36203 34168 ft 394 kts 307°
2026-04-29 12:58 45.20771 15.30284 34158 ft 394 kts 307°
2026-04-29 12:59 45.24313 15.24355 34152 ft 393 kts 307°
2026-04-29 12:59 45.27851 15.18419 34152 ft 394 kts 307°
2026-04-29 13:00 45.31385 15.12470 34152 ft 394 kts 307°
2026-04-29 13:00 45.34918 15.06518 34154 ft 394 kts 307°
2026-04-29 13:01 45.38455 15.00562 34156 ft 394 kts 307°
2026-04-29 13:01 45.41976 14.94593 34154 ft 394 kts 307°
2026-04-29 13:02 45.45469 14.88661 34151 ft 393 kts 307°
2026-04-29 13:02 45.49510 14.83340 34145 ft 398 kts 317°
2026-04-29 13:03 45.53813 14.78355 34149 ft 398 kts 316°
2026-04-29 13:03 45.58109 14.73355 34146 ft 398 kts 317°
2026-04-29 13:04 45.62408 14.68359 34159 ft 398 kts 316°
2026-04-29 13:04 45.66690 14.63335 34169 ft 398 kts 316°
2026-04-29 13:05 45.70978 14.58323 34179 ft 397 kts 316°
2026-04-29 13:05 45.75013 14.52981 34183 ft 394 kts 311°
2026-04-29 13:06 45.78897 14.47504 34182 ft 394 kts 312°
2026-04-29 13:06 45.82811 14.41993 34185 ft 394 kts 312°
2026-04-29 13:07 45.86718 14.36482 34187 ft 394 kts 312°
2026-04-29 13:07 45.90619 14.30961 34192 ft 393 kts 312°
2026-04-29 13:08 45.94509 14.25429 34194 ft 393 kts 311°
2026-04-29 13:08 45.98403 14.19904 34194 ft 393 kts 312°
2026-04-29 13:09 46.02290 14.14365 34198 ft 393 kts 311°
2026-04-29 13:09 46.06170 14.08830 34199 ft 392 kts 312°
2026-04-29 13:10 46.10075 14.03401 34194 ft 393 kts 312°
2026-04-29 13:10 46.13993 13.97921 34196 ft 393 kts 312°
2026-04-29 13:11 46.17914 13.92434 34196 ft 393 kts 312°
2026-04-29 13:11 46.21832 13.86933 34194 ft 392 kts 312°
2026-04-29 13:12 46.25745 13.81431 34197 ft 393 kts 312°
2026-04-29 13:12 46.29660 13.75920 34189 ft 393 kts 312°
2026-04-29 13:13 46.33571 13.70384 34191 ft 394 kts 312°
2026-04-29 13:13 46.37487 13.64833 34178 ft 394 kts 312°
2026-04-29 13:14 46.41414 13.59270 34168 ft 395 kts 312°
2026-04-29 13:14 46.45332 13.53704 34167 ft 395 kts 312°
2026-04-29 13:15 46.49233 13.48154 34163 ft 395 kts 312°
2026-04-29 13:15 46.53150 13.42544 34162 ft 395 kts 312°
2026-04-29 13:16 46.57050 13.36906 34156 ft 394 kts 309°
2026-04-29 13:16 46.60701 13.30950 34159 ft 395 kts 309°
2026-04-29 13:17 46.64364 13.24986 34162 ft 396 kts 309°
2026-04-29 13:17 46.68043 13.19018 34164 ft 396 kts 309°
2026-04-29 13:18 46.71712 13.13031 34164 ft 396 kts 309°
2026-04-29 13:18 46.75386 13.07034 34162 ft 397 kts 309°
2026-04-29 13:19 46.79037 13.01061 34160 ft 397 kts 309°
2026-04-29 13:19 46.82710 12.95023 34165 ft 397 kts 309°
2026-04-29 13:20 46.86381 12.88982 34169 ft 397 kts 308°
2026-04-29 13:20 46.90046 12.82938 34175 ft 398 kts 309°
2026-04-29 13:21 46.93723 12.76870 34185 ft 399 kts 309°
2026-04-29 13:21 46.97396 12.70803 34185 ft 398 kts 308°